Content
SEND FEEDBACK

Daily
Averages
Monthly
Summary
United States of America

WELLFLEET, NEBRASKA


Home > North America > United States > Nebraska
Elevation: 856 meters     Latitude: 40 45N     Longitude: 100 44W

WEATHER
 
SELECT A DAY
Number of Records: 204,019;   Date Range: 1/1/95 - 10/1/14
 
SHARE

PRINT THIS DATA

[ ← Previous Day ]
WEATHER ALMANAC - 23 JANUARY, 2013
[ Next Day → ]
[ °F ]   °C
Weather ElementAverageHighLow
Temperature-5.2 °C3.3 °C (11:53 am)-12.8 °C (6:53 am)
Dewpoint-10.6 °C-6.7 °C (10:53 am)-14.4 °C (6:53 am)
Humidity68.3 %91 % (2:53 am)46 % (1:53 pm)
Barometer1026.1 hPa1030.8 hPa (8:53 pm)1022.4 hPa (2:53 am)
Wind Speed10.1 km/h20.4 km/h (2:53 pm)
Weather ElementAverage
Visibility15.8 km
Wind DirectionE (89.6 °)

Weather ElementTotal
Precipitation---
Heating Degree Days23.1 (Base 18.3)
Averaged from 23 records on 23 January, 2013
WEATHER CONDITIONS BREAKOUT
WIND DIRECTION BREAKOUT
WEATHER BY HOUR - 23 JANUARY, 2013
[ °F ]   °C
Local TimeTemperatureDewpointHumidityBarometerVisibilityWind DirectionWind SpeedGust SpeedPrecipitationEventsConditions
1:53 AM-8.9 °C-11.1 °C84 %1022.7 hPa16.1 kmCalmClear
2:53 AM-9.4 °C-10.6 °C91 %1022.4 hPa16.1 kmCalmClear
3:53 AM-11.1 °C-13.3 °C84 %1022.7 hPa16.1 kmWNW (290°)5.6 km/hClear
4:53 AM-9.4 °C-11.7 °C84 %1022.4 hPa14.5 kmWest (260°)5.6 km/hClear
5:53 AM-11.1 °C-13.3 °C84 %1023 hPa14.5 kmCalmClear
6:53 AM-12.8 °C-14.4 °C88 %1023 hPa14.5 kmCalmClear
7:53 AM-11.1 °C-13.3 °C84 %1023.4 hPa14.5 kmNW (320°)5.6 km/hClear
8:53 AM-8.3 °C-10.6 °C84 %1023.7 hPa14.5 kmCalmClear
9:53 AM-4.4 °C-7.8 °C77 %1024.7 hPa16.1 kmWNW (290°)5.6 km/hClear
10:53 AM1.1 °C-6.7 °C56 %1025.7 hPa16.1 kmNE (50°)16.7 km/hClear
11:53 AM3.3 °C-6.7 °C48 %1025.4 hPa16.1 kmNE (50°)16.7 km/hClear
12:53 PM3.3 °C-7.2 °C47 %1025.1 hPa16.1 kmNE (50°)16.7 km/hClear
1:53 PM2.8 °C-7.8 °C46 %1025.4 hPa16.1 kmNE (50°)18.5 km/hClear
2:53 PM1.7 °C-7.8 °C50 %1026.8 hPa16.1 kmNE (50°)20.4 km/hClear
3:53 PM0 °C-8.3 °C54 %1027.1 hPa16.1 kmENE (60°)16.7 km/hClear
4:53 PM-0.6 °C-8.9 °C54 %1027.8 hPa16.1 kmEast (80°)14.8 km/hClear
5:53 PM-2.8 °C-9.4 °C61 %1028.8 hPa16.1 kmNE (50°)13 km/hClear
6:53 PM-3.9 °C-10.6 °C60 %1030.1 hPa16.1 kmNE (50°)14.8 km/hClear
7:53 PM-5.6 °C-11.1 °C66 %1030.5 hPa16.1 kmENE (70°)11.1 km/hClear
8:53 PM-6.1 °C-12.2 °C63 %1030.8 hPa16.1 kmEast (80°)16.7 km/hClear
9:53 PM-7.2 °C-12.8 °C65 %1030.8 hPa16.1 kmENE (70°)18.5 km/hClear
10:53 PM-8.3 °C-13.3 °C68 %1030.5 hPa16.1 kmEast (90°)7.4 km/hClear
11:53 PM-10 °C-13.9 °C74 %1030.8 hPa16.1 kmEast (100°)7.4 km/hClear
Hourly data recorded from KLBF, located 0 kilometers away from Wellfleet, Nebraska







STORIES FROM OUR PARTNERS